{"data":{"norad_id":59908,"epoch":"2026-05-24T22:01:18.886080Z","epoch_age_seconds":75365,"freshness":"FRESH","line1":"1 59908U 24101A   26144.91757970  .00010556  00000+0  14717-3 0  9990","line2":"2 59908  97.0485 271.7706 0001584 101.9355 258.2079 15.57086501112946","mean_motion":15.57086501,"eccentricity":0.0001584,"inclination_deg":97.0485,"raan_deg":271.7706,"arg_perigee_deg":101.9355,"mean_anomaly_deg":258.2079,"bstar":0.00014717,"rev_number":11294,"period_min":92.480411272925,"perigee_km":395.02116408378,"apogee_km":397.16724052867,"semimajor_km":6774.2312023062,"source":"CELESTRAK","updated_at":"2026-05-25T13:38:01.744703Z"}}